#timestamp,LO_Frequency,Hit,StdDev 
1572667215.2,286047000.6,N
1572667235.0,286047000.5,N
1572667235.9,286047000.5,N
1572667255.8,286046998.7,N
1572667275.6,286046999.3,N
1572667295.4,286046999.3,N
1572667315.3,286046995.3,Y
1572667335.1,286046996.5,P
1572667355.9,286046996.7,N
1572667375.7,286046999.3,N
1572667395.5,286046998.2,N
1572667415.4,286047000.5,N
1572667435.2,286047001.0,N
1572667455.0,286047002.4,N
1572667456.0,286047002.4,N
1572667475.8,286046999.8,N
1572667495.6,286047000.3,N
1572667515.5,286046998.2,N
1572667535.3,286047000.3,N
1572667555.1,286046998.4,N
1572667575.9,286047001.1,N
1572667595.7,286046998.1,N
1572667615.5,286046999.1,N
1572667635.4,286046999.3,N
1572667655.2,286046998.8,N
1572667675.1,286046998.3,N
1572667676.0,286046998.3,N
1572667695.8,286046996.7,N
1572667715.6,286046998.1,N
1572667735.5,286046998.3,N
1572667755.3,286046998.3,N
1572667775.1,286047001.1,N
1572667795.9,286047000.1,N
1572667815.7,286047000.9,N
1572667835.6,286047000.7,N
1572667855.4,286046998.1,N
1572667875.2,286047000.2,N
1572667895.1,286047000.2,N
1572667896.0,286047000.2,N
1572667915.8,286047002.5,N
1572667935.6,286047002.5,N
1572667955.5,286047002.8,N
1572667975.3,286047002.4,N
1572667995.2,286047002.5,N
1572668015.9,286047002.3,N
1572668035.7,286047000.1,N
1572668055.6,286047000.4,N
1572668075.4,286047000.4,N
1572668095.2,286046999.9,N
1572668115.1,286046999.9,N
1572668116.0,286046999.9,N
1572668135.8,286047004.3,N
1572668155.7,286047001.4,N
1572668175.5,286047004.2,N
1572668195.3,286047003.4,N
1572668215.2,286047003.7,N
1572668235.0,286047003.9,N
1572668235.9,286047003.9,N
1572668255.8,286046999.8,N
1572668275.6,286047002.5,N
1572668295.4,286047002.5,N
1572668315.3,286047002.8,N
1572668335.1,286047002.3,N
1572668355.8,286047004.4,N
1572668375.7,286047003.8,N
1572668395.5,286047003.9,N
1572668415.4,286046999.7,N
1572668435.2,286047001.4,N
1572668455.0,286047004.1,N
1572668455.9,286047004.1,N
1572668475.8,286047003.5,N
1572668495.6,286047005.9,Y
1572668515.4,286047002.4,P
1572668535.3,286047000.2,P
1572668555.1,286046998.1,N
1572668575.9,286047001.0,N
1572668595.7,286047001.0,N
1572668615.5,286046999.3,N
1572668635.4,286046996.6,N
1572668655.2,286046997.0,N
1572668675.1,286046996.8,N
1572668676.0,286046996.8,N
1572668695.8,286046999.2,N
1572668715.6,286046998.8,N
1572668735.5,286046999.6,N
1572668755.3,286046998.9,N
1572668775.1,286046996.5,N
1572668795.9,286046998.9,N
1572668815.7,286046997.1,N
1572668835.6,286046996.5,N
1572668855.4,286046997.3,N
1572668875.2,286046997.4,N
1572668895.1,286046999.5,N
1572668896.0,286046999.5,N
1572668915.8,286046996.5,N
1572668935.7,286046997.1,N
1572668955.5,286046995.1,N
1572668975.3,286046995.4,N
1572668995.2,286046997.1,N
1572669015.0,286046997.8,N
1572669015.9,286046997.8,N
1572669035.8,286046999.5,N
1572669055.6,286046997.2,N
1572669075.4,286046999.1,N
1572669095.3,286046999.3,N
1572669115.1,286046998.7,N
1572669135.8,286047000.6,N
1572669155.7,286047000.1,N
1572669175.5,286047002.7,N
1572669195.4,286047002.0,N
1572669215.2,286046999.8,N
1572669235.0,286047000.4,N
1572669235.9,286047000.4,N
1572669255.8,286046998.5,N
1572669275.6,286046999.3,N
1572669295.4,286046998.7,N
1572669315.3,286046998.8,N
1572669335.1,286046999.3,N
1572669355.9,286047002.5,N
1572669375.7,286047001.7,N
1572669395.5,286047001.3,N
1572669415.4,286047001.8,N
1572669435.2,286047001.5,N
1572669455.0,286047001.6,N
1572669455.9,286047001.6,N
1572669475.8,286047000.6,N
1572669495.6,286046998.2,N
1572669515.5,286046999.6,N
1572669535.3,286046996.5,N
1572669555.1,286046998.3,N
1572669575.9,286046999.3,N
1572669595.7,286046998.9,N
1572669615.5,286046998.7,N
1572669635.4,286046998.3,N
1572669655.2,286046998.9,N
1572669675.1,286046998.8,N
1572669676.0,286046998.8,N
1572669695.8,286046998.9,N
1572669715.6,286046998.9,N
1572669735.5,286046999.3,N
1572669755.3,286046998.3,N
1572669775.2,286046998.6,N
1572669795.9,286046999.0,N
1572669815.7,286046999.1,N
1572669835.6,286046997.0,N
1572669855.4,286046999.0,N
1572669875.2,286046999.4,N
1572669895.1,286046999.4,N
1572669896.0,286046999.4,N
1572669915.8,286046999.6,N
1572669935.7,286046998.8,N
1572669955.5,286046998.2,N
1572669975.3,286046998.3,N
1572669995.2,286047001.0,N
1572670015.9,286047001.2,N
1572670035.7,286047000.4,N
1572670055.6,286046999.0,N
1572670075.4,286046999.3,N
1572670095.2,286046998.1,N
1572670115.1,286047002.3,N
1572670116.0,286047002.3,N
1572670135.8,286047002.0,N
1572670155.7,286047002.4,N
1572670175.5,286047001.1,N
1572670195.3,286046998.7,N
1572670215.2,286046998.2,N
1572670235.0,286047001.0,N
1572670235.9,286047001.0,N
1572670255.7,286046998.4,N
1572670275.6,286046998.7,N
1572670295.4,286047000.7,N
1572670315.3,286047000.3,N
1572670335.1,286047001.4,N
1572670336.0,286047001.4,N
1572670355.8,286047002.0,N
1572670375.7,286047004.3,Y
1572670395.5,286047004.0,P
1572670415.4,286047003.1,N
1572670435.2,286047001.4,N
1572670455.0,286047004.4,N
1572670455.9,286047004.4,N
1572670475.8,286047002.4,N
1572670495.6,286046999.9,N
1572670515.4,286047002.5,N
1572670535.3,286047002.6,N
1572670555.1,286047002.8,N
1572670575.9,286046999.8,N
1572670595.7,286047002.8,N
1572670615.5,286047002.8,N
1572670635.4,286046999.7,N
1572670655.2,286046999.9,N
1572670675.0,286047000.9,N
1572670675.9,286047000.9,N
1572670695.8,286047002.7,N
1572670715.6,286047002.4,N
1572670735.5,286047002.3,N
1572670755.3,286047004.2,N
1572670775.1,286047001.7,N
1572670795.9,286047002.5,N
